www.pogodaiklimat.ru

Погода и климат >> Архив погоды >> Россия >> город Санкт-Петербург >> Санкт-Петербург


АРХИВ ПОГОДЫ в Санкт-Петербурге

Время (UTC), дата Ветер
(напр.,м/с)
 
Видим.   Явления Облачность Т
(С)
Тd
(С)
f
(%)
Тe
(С)
Тes
(С)
Комфортность P
(гПа)
Po
(гПа)
Тmin
(С)
Tmax
(С)
R
(мм)
R24
(мм)
S
(см)
15 15.02 В 2 10 км 10/8 300 м
[Sc Ac As]
-5.7 -9.7 73 -10 -10 по сезону 1031.0 1030.2
18 15.02 ЮВ 2 10 км 10/10 300 м
[Sc]
-6.1 -9.8 75 -10 -10 по сезону 1030.6 1029.8 -5.4
21 15.02 В 2 4000 м слабый снег 10/10 200 м
[Frnb Ns]
-6.4 -9.4 79 -11 -11 по сезону 1029.3 1028.5
00 16.02 В 1 4000 м слабый снег {дождь} 10/10 200 м
[Frnb Ns]
-6.6 -8.6 86 -9 -9 по сезону 1028.1 1027.3
03 16.02 В 2 4000 м слабый снег 10/10 200 м
[Frnb Ns]
-6.8 -8.6 87 -11 -11 по сезону 1026.7 1025.9 -6.8 2
06 16.02 Ю 2 4000 м слабый снег 10/10 200 м
[Frnb Ns]
-6.4 -8.5 85 -11 -11 по сезону 1025.7 1024.9 -6.8 2 20
09 16.02 ЮЗ 2 10 км в посл. час снег 8/8 210 м
[Sc]
-5.7 -8.6 80 -10 -10 по сезону 1025.7 1024.9
12 16.02 Ю 2 10 км {снег} 10/10 480 м
[]
-5.6 -8.9 78 -10 -10 по сезону 1025.6 1024.8
15 16.02 В 1 10 км 10/10 450 м
[Sc]
-5.1 -8.2 79 -7 -7 по сезону 1025.3 1024.5 1
18 16.02 Ю 2 10 км 10/10 480 м
[Sc]
-5.2 -8.2 79 -9 -9 по сезону 1025.1 1024.3 -5.0 0.3
21 16.02 В 1 10 км 10/10 570 м
[Sc]
-4.6 -8.5 74 -7 -7 по сезону 1024.7 1023.9
00 17.02 В 1 4000 м слабый снег 10/10 300 м
[Frnb Ns]
-5.4 -7.8 83 -8 -8 по сезону 1023.9 1023.1
03 17.02 СВ 1 4000 м слабый снег 10/10 300 м
[Frnb Ns]
-5.4 -7.2 87 -8 -8 по сезону 1023.0 1022.2 -5.5 0.6
06 17.02 В 1 10 км слабый снег 10/10 300 м
[Frnb Ns]
-5.3 -7.1 87 -8 -8 по сезону 1022.3 1021.5 -5.5 1 21
09 17.02 СВ 1 10 км слабый снег 10/10 300 м
[Frnb Ns]
-4.0 -6.5 83 -6 -6 по сезону 1021.6 1020.8
12 17.02 СВ 1 10 км слабый снег 10/10 300 м
[Sc]
-2.7 -5.3 82 -5 -5 по сезону 1021.0 1020.2
15 17.02 В 1 4000 м слабый снег 10/10 300 м
[Frnb Ns]
-3.2 -5.3 85 -5 -5 по сезону 1020.9 1020.1 0.6
18 17.02 СВ 1 10 км {снег} 10/10 300 м
[Sc]
-3.4 -5.2 87 -6 -6 по сезону 1020.9 1020.1 -2.6 0.9
21 17.02 СВ 1 10 км 10/10 270 м
[St]
-3.5 -5.1 89 -6 -6 по сезону 1020.8 1020.0
00 18.02 СВ 1 10 км 10/10 270 м
[St]
-3.9 -5.6 88 -6 -6 по сезону 1020.7 1020.0
03 18.02 С 2 4000 м слабый снег 10/10 300 м
[Frnb Ns]
-4.3 -6.0 88 -9 -9 по сезону 1020.8 1020.0 -4.3 0.5
06 18.02 С 2 4000 м слабый снег 10/10 180 м
[Frnb Ns]
-4.5 -6.1 89 -9 -9 по сезону 1020.8 1020.0 -4.5 1 21
09 18.02 СВ 2 4000 м слабый снег 10/10 200 м
[Frnb Ns]
-3.3 -6.0 82 -7 -7 по сезону 1020.8 1020.0
12 18.02 С 2 4000 м слабый снег 9/9 300 м
[Sc]
-3.1 -5.9 81 -7 -7 по сезону 1020.7 1019.9
15 18.02 С 2 4000 м слабый снег 10/10 200 м
[Frnb Ns]
-3.9 -6.1 85 -8 -8 по сезону 1020.9 1020.1 1
18 18.02 С 1 4000 м слабый снег 10/10 300 м
[Frnb Ns]
-4.3 -6.2 87 -7 -7 по сезону 1021.1 1020.3 -2.9 1
21 18.02 С 1 4000 м слабый снег 10/10 300 м
[Sc]
-4.6 -6.5 87 -7 -7 по сезону 1020.8 1020.1
00 19.02 С 2 10 км {снег} 10/10 330 м
[Sc]
-5.0 -6.7 88 -9 -9 по сезону 1020.8 1020.0
03 19.02 С 2 4000 м слабый снег 10/10 300 м
[Frnb Ns]
-5.1 -6.7 89 -9 -9 по сезону 1020.8 1020.0 -5.2 0.7
06 19.02 СВ 2 4000 м слабый ливневой снег 10/10 300 м
[Cb cap]
-4.5 -6.4 87 -9 -9 по сезону 1021.3 1020.5 -5.2 0.8 21
09 19.02 СВ 2 10 км слабый снег {ливн. осадки} 9/8 300 м
[Sc Ac trans]
-3.3 -6.3 80 -7 -7 по сезону 1021.9 1021.1
12 19.02 С 2 10 км {ливн. осадки, снег} 10/10 540 м
[Sc]
-3.9 -7.2 78 -8 -8 по сезону 1022.5 1021.7
15 19.02 С 2 10 км 10/8 450 м
[Sc Ac trans]
-4.7 -7.4 81 -9 -9 по сезону 1023.2 1022.4 0.8
18 19.02 С 2 4000 м слабый снег 10/10 300 м
[Sc]
-6.6 -9.0 83 -11 -11 по сезону 1023.7 1022.9 -3.0 0.7
21 19.02 СВ 2 10 км слабый снег 10/10 300 м
[Sc]
-6.5 -8.8 84 -11 -11 по сезону 1023.7 1022.9
00 20.02 СВ 1 10 км {снег} 10/10 300 м
[St]
-7.7 -9.9 84 -10 -10 по сезону 1024.5 1023.7
03 20.02 ЮЗ 1 10 км 4/4 300 м
[Sc]
-12.0 -13.8 86 -14 -14 прохладно 1024.7 1023.8 -12.0 0.6
06 20.02 ЮЗ 1 10 км 8/8 600 м
[Sc]
-14.2 -15.9 87 -17 -17 холодно 1025.1 1024.2 -16.1 0.3 23
09 20.02 ЮЗ 2 10 км {снег} ясно -10.8 -13.7 79 -15 -13 холодно 1025.4 1024.6
12 20.02 СЗ 1 10 км {снег} 9/6 600 м
[Sc Ac trans]
-7.0 -10.5 76 -9 -9 по сезону 1025.6 1024.8
15 20.02 СЗ 1 10 км {снег} 8/8 300 м
[Cu Sc]
-8.6 -11.2 81 -11 -11 прохладно 1025.7 1024.9 0.0
18 20.02 С 1 10 км {снег} 8/0
[Ac trans]
-9.3 -11.4 85 -12 -12 прохладно 1026.2 1025.4 -5.6 0.0
21 20.02 штиль 0 4000 м слабый снег 10/0
[As op]
-15.0 -16.7 87 -15 -15 холодно 1026.2 1025.4
00 21.02 штиль 0 10 км {снег} ясно -20.4 -22.7 82 -20 -20 очень
холодно
1026.9 1026.0
03 21.02 штиль 0 10 км 4/0
[Ac trans]
-20.8 -23.1 82 -21 -21 очень
холодно
1026.9 1026.0 -20.8 0.0
06 21.02 штиль 0 1000 м дымка {туман} ясно -16.1 -18.0 85 -16 -16 холодно 1027.1 1026.3 -21.2 0.0 20
09 21.02 ЮЗ 1 10 км {туман} 1/0
[Ac trans]
-13.3 -14.9 88 -16 -13 холодно 1027.7 1026.8
12 21.02 ЮЗ 2 10 км {туман} ясно -12.2 -15.2 78 -17 -15 очень
холодно
1028.0 1027.2
15 21.02 ЮЗ 1 10 км 1/0
[Ac trans]
-13.4 -15.0 88 -16 -16 очень
холодно
1027.9 1027.1
18 21.02 ЮЗ 1 500 м переохл. туман ясно -13.4 -14.9 88 -16 -16 очень
холодно
1028.6 1027.7 -11.3
21 21.02 ЮЗ 1 10 км {туман} ясно -18.5 -20.6 83 -21 -21 очень
холодно
1029.5 1028.7
00 22.02 ЮЗ 1 4000 м дымка ясно -18.2 -20.2 84 -21 -21 очень
холодно
1030.3 1029.5
03 22.02 З 1 10 км 3/0
[As trans]
-18.1 -20.1 84 -21 -21 очень
холодно
1030.5 1029.7 -19.4
06 22.02 З 1 500 м переохл. туман ?/? -15.4 -17.1 87 -18 -18 очень
холодно
1030.8 1029.9 -19.4 20
09 22.02 ЮЗ 1 4000 м дымка {туман} 6/3 300 м
[Sc Ci fib]
-13.1 -14.6 88 -15 -14 холодно 1031.1 1030.3
12 22.02 З 2 10 км {туман} ясно -10.2 -11.9 87 -15 -13 очень
холодно
1030.3 1029.5

 

Местоположение метеостанции Санкт-Петербург (город Санкт-Петербург, Россия): широта 59.97 долгота 30.30 высота над уровнем моря 6 м.

В архиве по умолчанию представлена погода в Санкт-Петербурге за последнюю неделю. Архивные данные за месяц целиком и за предыдущие месяцы, начиная с января 2011 года, Вы можете получить, выбрав интересующий диапазон дат из раскрывающегося списка и нажав кнопку "Ввод!".

Внимание! Время в таблицах - всемирное. Для получения местного времени необходимо прибавить поправку, которая в Санкт-Петербурге равна 3 ч.

Смотрите также архив погоды в соседних городах и на ближайших метеорологических станциях:

Погода в Лисьем Носу (город Санкт-Петербург, Россия) (19 км)
Погода в Воейково (город Санкт-Петербург, Россия) (22 км)
Погода в Ломоносове (город Санкт-Петербург, Россия) (29 км)
Погода в Кронштадте (город Санкт-Петербург, Россия) (30 км)
Погода в Шлиссельбурге (Ленинградская область, Россия) (39 км)
Погода в Рощино (Ленинградская область, Россия) (48 км)
Погода в Шепелево (Ленинградская область, Россия) (58 км)
Погода в Сосново (Ленинградская область, Россия) (65 км)
Погода в Сосновом Бору (Ленинградская область, Россия) (65 км)
Погода в Белогорке (Ленинградская область, Россия) (70 км)

Пояснения к столбцам:

Ветер - указаны скорость ветра в м/с - средняя за 10 мин, порывы в срок и между сроками (в фигурных скобках) и направление, откуда дует ветер: С - северный, СВ - северо-восточный, В - восточный, ЮВ - юго-восточный, Ю - южный, ЮЗ - юго-западный, З - западный, СЗ - северо-западный.
Видимость - горизонтальная дальность видимости в метрах или километрах. При видимости от 1 до 10 км при отсутствии осадков обычно наблюдается дымка, при ухудшении видимости до 1 км и менее - туман. В сухую погоду видимость может ухудшаться дымом, пылью или мглою.
Явления - указаны атмосферные явления, наблюдавшиеся в срок или в последний час перед сроком; фигурными скобками обозначены явления, наблюдавшиеся между сроками (за 1-3 часа до срока); квадратными скобками обозначены град или гололедные отложения с указанием их диаметра в мм.
Облачность - указаны через наклонную черту общая и нижняя облачность в баллах и высота нижней границы облаков в метрах; квадратными скобками обозначены формы облаков: Ci - перистые, Cs - перисто-слоистые, Cc - перисто-кучевые, Ac - высококучевые, As - высокослоистые, Sc - слоисто-кучевые, Ns - слоисто-дождевые, Cu - кучевые, Cb - кучево-дождевые. Подробнее классификацию облаков см. в Атласе облаков (PDF).
T - Температура воздуха - температура, измеренная на высоте 2 м над землей.
Td - Температура точки росы - температура, при понижении до которой содержащийся в воздухе водяной пар достигнет насыщения.
f - Относительная влажность воздуха - влажноcть воздуха, измеренная на высоте 2 м над землей.
Te - Эффективная температура - температура, которую ощущает одетый по сезону человек в тени. Характеристика душности погоды. При расчете учитывается влияние влажности воздуха и скорости ветра на теплоощущения человека.
Tes - Эффективная температура на солнце - температура, которую ощущает человек, с поправкой на солнечный нагрев. Характеристика знойности погоды. Зависит от высоты солнца над горизонтом, облачности и скорости ветра. Ночью, в пасмурную погоду, а также при ветре 12 м/с и более поправка равна нулю.
P - Атмосферное давление - приведенное к уровню моря атмосферное давление.
Po - Атмосферное давление - измеренное на уровне метеостанции атмосферное давление.
Tmin - Минимальная температура - минимум температуры воздуха на высоте 2 м над землей.
Tmax - Максимальная температура - максимум температуры воздуха на высоте 2 м над землей.
R - Количество осадков - Количество выпавших осадков за период времени, мм. При наведении курсора мыши на число - период времени, за который выпало указанное количество осадков.
R24 - Количество осадков - Количество выпавших осадков за 24 часа, мм.
S - Снежный покров - Высота снежного покрова, см. При наведении курсора мыши на число - состояние снежного покрова и степень покрытия местности в баллах.